Weather in Yeltesunovo

Russia / Vladimir Oblast     56°14′08″N   39°53′13″E
temp.,
°C
wind,
m/s
gust,
m/s
humid.,
%
clouds,
%
prec.,
mm/h
press.,
hPa
HPBL,
m
25 february, thu
thu2500:00−15s61095100 0.4 1028405
03:00−15ssw61095100 1.6 1025396
06:00−13ssw71295100 2.9 1018404
09:00−9ssw61195100 4.7 1013410
12:00−1sw4997100 1.3 1011302
15:00+2wnw614100100 1.8 1011395
18:00+1wnw51299100 0.2 1011369
21:00+1wnw51099100 0.2 1012327
26 february, fri
fri2600:000wnw4894100 0.0 1011166
03:00+1sw34100100 0.1 1011100
06:00+1wsw36100100 0.7 1008144
09:00+1sw49100100 1.6 1006263
12:00+2wsw613100100 0.9 1003376
15:00+2wsw614100100 2.3 1001446
18:00+2w71593100 0.7 999744
21:00+1w7159496 0.8 999850
27 february, sat
sat2700:00+1wnw81497100 0.2 997809
03:00+1w81497100 0.4 997751
06:000w81397100 0.6 996766
09:000wnw61098100 1.5 997598
12:00−7nnw71090100 0.6 999627
15:00−9n71190100 0.8 1003735
18:00−11n71291100 0.1 1006631
21:00−12n61292100 0.1 1010574
28 february, sun
sun2800:00−14n61193100 0.0 1012404
03:00−15n5119378 0.1 1014326
06:00−17nnw499412 0.0 1016252
09:00−16nnw59936 0.0 1017307
12:00−13nnw479152 0.0 1018376
15:00−10nnw589172 0.0 1019505
18:00−12nnw3695100 0.0 1020101
21:00−12nnw359689 0.1 102295
1 march, mon
mon100:00−13nnw349766 0.0 102359
03:00−11nnw239682 0.1 102546
06:00−10nw1196100 0.1 102521
09:00−8w349697 0.1 1026110
12:00−3w359374 0.0 1025313
15:00−1w589375 0.1 1024533
18:00−1w5109499 0.0 1023495
21:00−1w6139299 0.1 1021574